Time,TemperatureF,DewpointF,PressureIn,WindDirection,WindDirectionDegrees,WindSpeedMPH,WindSpeedGustMPH,Humidity,HourlyPrecipIn,Conditions,Clouds,dailyrainin,SolarRadiationWatts/m^2,SoftwareType,DateUTC
2013-05-18 00:05:00,61.0,42.8,30.21,NNE,22,3.0,4.0,51,-99.99,,,0.00,0.00,VWS V14.01,2013-05-18 04:05:00,
2013-05-18 00:10:00,61.0,43.8,30.21,NE,45,2.0,4.0,53,-99.99,,,0.00,0.00,VWS V14.01,2013-05-18 04:10:00,
2013-05-18 00:15:00,61.0,43.8,30.21,NE,45,3.0,4.0,53,-99.99,,,0.00,0.00,VWS V14.01,2013-05-18 04:15:00,
2013-05-18 00:20:00,60.0,43.3,30.21,NNE,22,4.0,5.0,54,-99.99,,,0.00,0.00,VWS V14.01,2013-05-18 04:20:00,
2013-05-18 00:25:00,60.0,43.3,30.21,NNE,22,5.0,9.0,54,-99.99,,,0.00,0.00,VWS V14.01,2013-05-18 04:25:00,
2013-05-18 00:30:00,60.0,43.3,30.21,NE,45,4.0,8.0,54,-99.99,,,0.00,0.00,VWS V14.01,2013-05-18 04:30:00,
2013-05-18 00:35:00,60.0,43.8,30.21,NNE,22,3.0,7.0,55,-99.99,,,0.00,0.00,VWS V14.01,2013-05-18 04:35:00,
2013-05-18 00:40:00,60.0,43.8,30.21,NNE,22,5.0,10.0,55,-99.99,,,0.00,0.00,VWS V14.01,2013-05-18 04:40:00,
2013-05-18 00:45:00,60.0,43.8,30.21,NNE,22,5.0,9.0,55,-99.99,,,0.00,0.00,VWS V14.01,2013-05-18 04:45:00,
2013-05-18 00:50:00,60.0,44.3,30.21,NNW,338,9.0,10.0,56,-99.99,,,0.00,0.00,VWS V14.01,2013-05-18 04:50:00,
2013-05-18 00:55:00,60.0,44.3,30.21,NNE,22,3.0,7.0,56,-99.99,,,0.00,0.00,VWS V14.01,2013-05-18 04:55:00,
2013-05-18 01:00:00,60.0,44.3,30.20,NNE,22,4.0,7.0,56,-99.99,,,0.00,0.00,VWS V14.01,2013-05-18 05:00:00,
2013-05-18 01:05:00,59.0,43.8,30.20,NE,45,3.0,7.0,57,-99.99,,,0.00,0.00,VWS V14.01,2013-05-18 05:05:00,
2013-05-18 01:10:00,59.0,43.8,30.20,North,0,7.0,7.0,57,-99.99,,,0.00,0.00,VWS V14.01,2013-05-18 05:10:00,
2013-05-18 01:15:00,59.0,43.8,30.20,North,0,10.0,10.0,57,-99.99,,,0.00,0.00,VWS V14.01,2013-05-18 05:15:00,
2013-05-18 01:20:00,59.0,43.8,30.20,NNE,22,3.0,8.0,57,-99.99,,,0.00,0.00,VWS V14.01,2013-05-18 05:20:00,
2013-05-18 01:25:00,59.0,43.8,30.20,North,0,4.0,7.0,57,-99.99,,,0.00,0.00,VWS V14.01,2013-05-18 05:25:00,
2013-05-18 01:30:00,59.0,43.8,30.20,NNW,338,7.0,7.0,57,-99.99,,,0.00,0.00,VWS V14.01,2013-05-18 05:30:00,
2013-05-18 01:35:00,59.0,43.8,30.20,North,0,6.0,8.0,57,-99.99,,,0.00,0.00,VWS V14.01,2013-05-18 05:35:00,
2013-05-18 01:40:00,59.0,44.3,30.20,NNW,338,6.0,8.0,58,-99.99,,,0.00,0.00,VWS V14.01,2013-05-18 05:40:00,
2013-05-18 01:45:00,59.0,44.3,30.20,North,0,7.0,7.0,58,-99.99,,,0.00,0.00,VWS V14.01,2013-05-18 05:45:00,
2013-05-18 01:50:00,59.0,44.3,30.20,NNW,338,8.0,10.0,58,-99.99,,,0.00,0.00,VWS V14.01,2013-05-18 05:50:00,
2013-05-18 01:55:00,59.0,44.3,30.20,North,0,9.0,9.0,58,-99.99,,,0.00,0.00,VWS V14.01,2013-05-18 05:55:00,
2013-05-18 02:00:00,59.0,44.7,30.20,NE,45,2.0,8.0,59,-99.99,,,0.00,0.00,VWS V14.01,2013-05-18 06:00:00,
2013-05-18 02:05:00,59.0,44.7,30.20,North,0,4.0,5.0,59,-99.99,,,0.00,0.00,VWS V14.01,2013-05-18 06:05:00,
2013-05-18 02:10:00,58.0,44.2,30.20,North,0,4.0,5.0,60,-99.99,,,0.00,0.00,VWS V14.01,2013-05-18 06:10:00,
2013-05-18 02:15:00,58.0,44.2,30.20,NNE,22,4.0,4.0,60,-99.99,,,0.00,0.00,VWS V14.01,2013-05-18 06:15:00,
2013-05-18 02:20:00,58.0,44.6,30.20,NNE,22,4.0,7.0,61,-99.99,,,0.00,0.00,VWS V14.01,2013-05-18 06:20:00,
2013-05-18 02:25:00,58.0,44.6,30.20,NNE,22,2.0,4.0,61,-99.99,,,0.00,0.00,VWS V14.01,2013-05-18 06:25:00,
2013-05-18 02:30:00,58.0,45.1,30.20,North,0,7.0,7.0,62,-99.99,,,0.00,0.00,VWS V14.01,2013-05-18 06:30:00,
2013-05-18 02:35:00,58.0,45.1,30.20,North,0,9.0,9.0,62,-99.99,,,0.00,0.00,VWS V14.01,2013-05-18 06:35:00,
2013-05-18 02:40:00,58.0,44.6,30.20,NNW,338,7.0,7.0,61,-99.99,,,0.00,0.00,VWS V14.01,2013-05-18 06:40:00,
2013-05-18 02:45:00,58.0,44.6,30.20,North,0,7.0,10.0,61,-99.99,,,0.00,0.00,VWS V14.01,2013-05-18 06:45:00,
2013-05-18 02:50:00,58.0,44.2,30.20,North,0,4.0,8.0,60,-99.99,,,0.00,0.00,VWS V14.01,2013-05-18 06:50:00,
2013-05-18 02:55:00,58.0,44.2,30.20,North,0,4.0,7.0,60,-99.99,,,0.00,0.00,VWS V14.01,2013-05-18 06:55:00,
2013-05-18 03:00:00,58.0,44.6,30.20,NNW,338,5.0,7.0,61,-99.99,,,0.00,0.00,VWS V14.01,2013-05-18 07:00:00,
2013-05-18 03:05:00,58.0,44.6,30.20,NNE,22,6.0,8.0,61,-99.99,,,0.00,0.00,VWS V14.01,2013-05-18 07:05:00,
2013-05-18 03:10:00,58.0,44.6,30.20,NNE,22,5.0,7.0,61,-99.99,,,0.00,0.00,VWS V14.01,2013-05-18 07:10:00,
2013-05-18 03:15:00,58.0,44.2,30.20,NNE,22,6.0,10.0,60,-99.99,,,0.00,0.00,VWS V14.01,2013-05-18 07:15:00,
2013-05-18 03:20:00,58.0,44.2,30.20,North,0,8.0,9.0,60,-99.99,,,0.00,0.00,VWS V14.01,2013-05-18 07:20:00,
2013-05-18 03:25:00,58.0,44.2,30.20,NNE,22,4.0,8.0,60,-99.99,,,0.00,0.00,VWS V14.01,2013-05-18 07:25:00,
2013-05-18 03:30:00,58.0,44.2,30.20,NNE,22,6.0,9.0,60,-99.99,,,0.00,0.00,VWS V14.01,2013-05-18 07:30:00,
2013-05-18 03:35:00,58.0,44.2,30.20,NNE,22,8.0,9.0,60,-99.99,,,0.00,0.00,VWS V14.01,2013-05-18 07:35:00,
2013-05-18 03:40:00,58.0,44.2,30.20,NNW,338,10.0,10.0,60,-99.99,,,0.00,0.00,VWS V14.01,2013-05-18 07:40:00,
2013-05-18 03:45:00,58.0,44.6,30.21,NNE,22,6.0,9.0,61,-99.99,,,0.00,0.00,VWS V14.01,2013-05-18 07:45:00,
2013-05-18 03:50:00,58.0,44.6,30.21,North,0,4.0,9.0,61,-99.99,,,0.00,0.00,VWS V14.01,2013-05-18 07:50:00,
2013-05-18 03:55:00,58.0,45.1,30.21,NNE,22,7.0,7.0,62,-99.99,,,0.00,0.00,VWS V14.01,2013-05-18 07:55:00,
2013-05-18 04:00:00,58.0,45.5,30.21,NNE,22,5.0,7.0,63,-99.99,,,0.00,0.00,VWS V14.01,2013-05-18 08:00:00,
2013-05-18 04:05:00,57.0,45.0,30.21,NNW,338,3.0,3.0,64,-99.99,,,0.00,0.00,VWS V14.01,2013-05-18 08:05:00,
2013-05-18 04:10:00,57.0,45.0,30.21,NE,45,4.0,4.0,64,-99.99,,,0.00,0.00,VWS V14.01,2013-05-18 08:10:00,
2013-05-18 04:15:00,57.0,45.0,30.20,NNE,22,4.0,5.0,64,-99.99,,,0.00,0.00,VWS V14.01,2013-05-18 08:15:00,
2013-05-18 04:20:00,57.0,45.0,30.21,NNE,22,3.0,4.0,64,-99.99,,,0.00,0.00,VWS V14.01,2013-05-18 08:20:00,
2013-05-18 04:25:00,57.0,45.0,30.21,North,0,3.0,6.0,64,-99.99,,,0.00,0.00,VWS V14.01,2013-05-18 08:25:00,
2013-05-18 04:30:00,57.0,45.4,30.21,NNE,22,5.0,6.0,65,-99.99,,,0.00,0.00,VWS V14.01,2013-05-18 08:30:00,
2013-05-18 04:35:00,57.0,45.0,30.21,NNE,22,2.0,5.0,64,-99.99,,,0.00,0.00,VWS V14.01,2013-05-18 08:35:00,
2013-05-18 04:40:00,57.0,45.0,30.21,North,0,6.0,6.0,64,-99.99,,,0.00,0.00,VWS V14.01,2013-05-18 08:40:00,
2013-05-18 04:45:00,57.0,45.0,30.21,North,0,4.0,5.0,64,-99.99,,,0.00,0.00,VWS V14.01,2013-05-18 08:45:00,
2013-05-18 04:50:00,57.0,45.0,30.21,North,0,6.0,7.0,64,-99.99,,,0.00,0.00,VWS V14.01,2013-05-18 08:50:00,
2013-05-18 04:55:00,57.0,45.0,30.21,NNW,338,3.0,6.0,64,-99.99,,,0.00,0.00,VWS V14.01,2013-05-18 08:55:00,
2013-05-18 05:00:00,57.0,45.0,30.21,North,0,4.0,4.0,64,-99.99,,,0.00,0.00,VWS V14.01,2013-05-18 09:00:00,
2013-05-18 05:05:00,57.0,45.0,30.21,NNE,22,3.0,7.0,64,-99.99,,,0.00,0.00,VWS V14.01,2013-05-18 09:05:00,
2013-05-18 05:10:00,57.0,45.4,30.21,North,0,6.0,7.0,65,-99.99,,,0.00,0.00,VWS V14.01,2013-05-18 09:10:00,
2013-05-18 05:15:00,57.0,45.4,30.21,NE,45,4.0,4.0,65,-99.99,,,0.00,0.00,VWS V14.01,2013-05-18 09:15:00,
2013-05-18 05:20:00,57.0,45.8,30.20,NE,45,2.0,3.0,66,-99.99,,,0.00,0.00,VWS V14.01,2013-05-18 09:20:00,
2013-05-18 05:25:00,57.0,45.8,30.21,NNE,22,3.0,6.0,66,-99.99,,,0.00,0.00,VWS V14.01,2013-05-18 09:25:00,
2013-05-18 05:30:00,57.0,45.8,30.21,NE,45,2.0,6.0,66,-99.99,,,0.00,0.00,VWS V14.01,2013-05-18 09:30:00,
2013-05-18 05:35:00,57.0,46.2,30.21,NE,45,3.0,5.0,67,-99.99,,,0.00,0.00,VWS V14.01,2013-05-18 09:35:00,
2013-05-18 05:40:00,57.0,46.2,30.21,NE,45,4.0,7.0,67,-99.99,,,0.00,0.00,VWS V14.01,2013-05-18 09:40:00,
2013-05-18 05:45:00,57.0,46.2,30.21,NNE,22,3.0,7.0,67,-99.99,,,0.00,0.00,VWS V14.01,2013-05-18 09:45:00,
2013-05-18 05:50:00,57.0,46.2,30.21,NE,45,6.0,7.0,67,-99.99,,,0.00,0.00,VWS V14.01,2013-05-18 09:50:00,
2013-05-18 05:55:00,57.0,46.2,30.21,NNE,22,3.0,7.0,67,-99.99,,,0.00,0.00,VWS V14.01,2013-05-18 09:55:00,
2013-05-18 06:00:00,57.0,46.6,30.21,North,0,6.0,7.0,68,-99.99,,,0.00,0.00,VWS V14.01,2013-05-18 10:00:00,
2013-05-18 06:05:00,57.0,46.2,30.21,NNW,338,5.0,9.0,67,-99.99,,,0.00,0.00,VWS V14.01,2013-05-18 10:05:00,
2013-05-18 06:10:00,57.0,46.2,30.21,NNE,22,3.0,5.0,67,-99.99,,,0.00,10.00,VWS V14.01,2013-05-18 10:10:00,
2013-05-18 06:15:00,57.0,46.6,30.22,North,0,5.0,6.0,68,-99.99,,,0.00,10.00,VWS V14.01,2013-05-18 10:15:00,
2013-05-18 06:20:00,57.0,46.6,30.22,NNW,338,5.0,6.0,68,-99.99,,,0.00,10.00,VWS V14.01,2013-05-18 10:20:00,
2013-05-18 06:25:00,57.0,46.6,30.22,NNE,22,3.0,9.0,68,-99.99,,,0.00,20.00,VWS V14.01,2013-05-18 10:25:00,
2013-05-18 06:30:00,57.0,46.2,30.22,NNE,22,3.0,8.0,67,-99.99,,,0.00,20.00,VWS V14.01,2013-05-18 10:30:00,
2013-05-18 06:35:00,57.0,46.6,30.22,NNE,22,4.0,5.0,68,-99.99,,,0.00,30.00,VWS V14.01,2013-05-18 10:35:00,
2013-05-18 06:40:00,57.0,46.6,30.23,North,0,4.0,6.0,68,-99.99,,,0.00,30.00,VWS V14.01,2013-05-18 10:40:00,
2013-05-18 06:45:00,57.0,46.9,30.23,NNE,22,6.0,8.0,69,-99.99,,,0.00,30.00,VWS V14.01,2013-05-18 10:45:00,
2013-05-18 06:50:00,57.0,46.9,30.23,NNW,338,4.0,6.0,69,-99.99,,,0.00,40.00,VWS V14.01,2013-05-18 10:50:00,
2013-05-18 06:55:00,57.0,46.9,30.23,NNE,22,4.0,6.0,69,-99.99,,,0.00,40.00,VWS V14.01,2013-05-18 10:55:00,
2013-05-18 07:00:00,57.0,47.3,30.23,North,0,3.0,4.0,70,-99.99,,,0.00,50.00,VWS V14.01,2013-05-18 11:00:00,
2013-05-18 07:05:00,57.0,47.3,30.24,NNE,22,1.0,6.0,70,-99.99,,,0.00,60.00,VWS V14.01,2013-05-18 11:05:00,
2013-05-18 07:10:00,57.0,46.9,30.23,NE,45,6.0,8.0,69,-99.99,,,0.00,50.00,VWS V14.01,2013-05-18 11:10:00,
2013-05-18 07:15:00,57.0,46.6,30.23,NE,45,6.0,8.0,68,-99.99,,,0.00,40.00,VWS V14.01,2013-05-18 11:15:00,
2013-05-18 07:20:00,57.0,46.6,30.23,NE,45,4.0,4.0,68,-99.99,,,0.00,40.00,VWS V14.01,2013-05-18 11:20:00,
2013-05-18 07:25:00,57.0,46.6,30.23,NNE,22,8.0,12.0,68,-99.99,,,0.00,40.00,VWS V14.01,2013-05-18 11:25:00,
2013-05-18 07:30:00,57.0,46.2,30.22,North,0,5.0,9.0,67,-99.99,,,0.00,40.00,VWS V14.01,2013-05-18 11:30:00,
2013-05-18 07:35:00,57.0,45.4,30.22,North,0,6.0,12.0,65,-99.99,,,0.00,50.00,VWS V14.01,2013-05-18 11:35:00,
2013-05-18 07:40:00,58.0,45.9,30.23,NNE,22,4.0,10.0,64,-99.99,,,0.00,50.00,VWS V14.01,2013-05-18 11:40:00,
2013-05-18 07:45:00,58.0,45.5,30.23,NNE,22,3.0,3.0,63,-99.99,,,0.00,50.00,VWS V14.01,2013-05-18 11:45:00,
2013-05-18 07:50:00,58.0,45.5,30.23,NNE,22,3.0,8.0,63,-99.99,,,0.00,50.00,VWS V14.01,2013-05-18 11:50:00,
2013-05-18 07:55:00,58.0,45.5,30.23,NNE,22,3.0,7.0,63,-99.99,,,0.00,50.00,VWS V14.01,2013-05-18 11:55:00,
2013-05-18 08:00:00,58.0,45.9,30.23,North,0,4.0,7.0,64,-99.99,,,0.00,50.00,VWS V14.01,2013-05-18 12:00:00,
2013-05-18 08:05:00,58.0,45.5,30.23,NNE,22,4.0,7.0,63,-99.99,,,0.00,60.00,VWS V14.01,2013-05-18 12:05:00,
2013-05-18 08:10:00,58.0,45.9,30.23,NNE,22,5.0,8.0,64,-99.99,,,0.00,70.00,VWS V14.01,2013-05-18 12:10:00,
2013-05-18 08:15:00,58.0,45.9,30.24,North,0,2.0,7.0,64,-99.99,,,0.00,80.00,VWS V14.01,2013-05-18 12:15:00,
2013-05-18 08:20:00,58.0,45.9,30.24,NE,45,4.0,4.0,64,-99.99,,,0.00,90.00,VWS V14.01,2013-05-18 12:20:00,
2013-05-18 08:25:00,58.0,46.3,30.24,NE,45,5.0,6.0,65,-99.99,,,0.00,100.00,VWS V14.01,2013-05-18 12:25:00,
2013-05-18 08:30:00,59.0,47.3,30.24,North,0,7.0,9.0,65,-99.99,,,0.00,110.00,VWS V14.01,2013-05-18 12:30:00,
2013-05-18 08:35:00,59.0,47.7,30.24,NNE,22,3.0,4.0,66,-99.99,,,0.00,110.00,VWS V14.01,2013-05-18 12:35:00,
2013-05-18 08:40:00,59.0,47.3,30.24,North,0,6.0,8.0,65,-99.99,,,0.00,110.00,VWS V14.01,2013-05-18 12:40:00,
2013-05-18 08:45:00,59.0,47.3,30.24,NE,45,4.0,4.0,65,-99.99,,,0.00,120.00,VWS V14.01,2013-05-18 12:45:00,
2013-05-18 08:50:00,59.0,46.8,30.24,NNE,22,3.0,10.0,64,-99.99,,,0.00,130.00,VWS V14.01,2013-05-18 12:50:00,
2013-05-18 08:55:00,60.0,47.8,30.24,NNE,22,5.0,7.0,64,-99.99,,,0.00,150.00,VWS V14.01,2013-05-18 12:55:00,
2013-05-18 09:00:00,60.0,47.4,30.24,North,0,8.0,10.0,63,-99.99,,,0.00,170.00,VWS V14.01,2013-05-18 13:00:00,
2013-05-18 09:05:00,60.0,47.4,30.24,North,0,6.0,8.0,63,-99.99,,,0.00,210.00,VWS V14.01,2013-05-18 13:05:00,
2013-05-18 09:10:00,61.0,47.9,30.24,NNE,22,5.0,10.0,62,-99.99,,,0.00,230.00,VWS V14.01,2013-05-18 13:10:00,
2013-05-18 09:15:00,61.0,47.5,30.25,NNE,22,6.0,7.0,61,-99.99,,,0.00,230.00,VWS V14.01,2013-05-18 13:15:00,
2013-05-18 09:20:00,61.0,47.5,30.25,NNE,22,6.0,7.0,61,-99.99,,,0.00,230.00,VWS V14.01,2013-05-18 13:20:00,
2013-05-18 09:25:00,61.0,47.9,30.25,NNE,22,4.0,11.0,62,-99.99,,,0.00,210.00,VWS V14.01,2013-05-18 13:25:00,
2013-05-18 09:30:00,61.0,47.5,30.25,NE,45,6.0,7.0,61,-99.99,,,0.00,180.00,VWS V14.01,2013-05-18 13:30:00,
2013-05-18 09:35:00,61.0,47.9,30.25,NNE,22,4.0,7.0,62,-99.99,,,0.00,160.00,VWS V14.01,2013-05-18 13:35:00,
2013-05-18 09:40:00,62.0,48.8,30.25,NE,45,3.0,3.0,62,-99.99,,,0.00,170.00,VWS V14.01,2013-05-18 13:40:00,
2013-05-18 09:45:00,62.0,48.4,30.25,NNE,22,7.0,8.0,61,-99.99,,,0.00,220.00,VWS V14.01,2013-05-18 13:45:00,
2013-05-18 09:50:00,62.0,48.8,30.24,NNE,22,5.0,6.0,62,-99.99,,,0.00,210.00,VWS V14.01,2013-05-18 13:50:00,
2013-05-18 09:55:00,62.0,48.8,30.24,North,0,6.0,7.0,62,-99.99,,,0.00,300.00,VWS V14.01,2013-05-18 13:55:00,
2013-05-18 10:00:00,63.0,49.4,30.24,NE,45,4.0,9.0,61,-99.99,,,0.00,370.00,VWS V14.01,2013-05-18 14:00:00,
2013-05-18 10:05:00,63.0,48.5,30.24,NNE,22,5.0,10.0,59,-99.99,,,0.00,370.00,VWS V14.01,2013-05-18 14:05:00,
2013-05-18 10:10:00,63.0,48.5,30.24,NE,45,4.0,7.0,59,-99.99,,,0.00,280.00,VWS V14.01,2013-05-18 14:10:00,
2013-05-18 10:15:00,64.0,48.0,30.24,NE,45,5.0,7.0,56,-99.99,,,0.00,280.00,VWS V14.01,2013-05-18 14:15:00,
2013-05-18 10:20:00,64.0,48.9,30.24,NNE,22,7.0,7.0,58,-99.99,,,0.00,320.00,VWS V14.01,2013-05-18 14:20:00,
2013-05-18 10:25:00,64.0,48.5,30.24,NE,45,6.0,6.0,57,-99.99,,,0.00,270.00,VWS V14.01,2013-05-18 14:25:00,
2013-05-18 10:30:00,64.0,48.0,30.24,NE,45,6.0,7.0,56,-99.99,,,0.00,250.00,VWS V14.01,2013-05-18 14:30:00,
2013-05-18 10:35:00,65.0,48.5,30.24,NE,45,3.0,3.0,55,-99.99,,,0.00,180.00,VWS V14.01,2013-05-18 14:35:00,
2013-05-18 10:40:00,65.0,48.5,30.25,NNE,22,4.0,4.0,55,-99.99,,,0.00,180.00,VWS V14.01,2013-05-18 14:40:00,
2013-05-18 10:45:00,65.0,48.5,30.25,North,0,5.0,5.0,55,-99.99,,,0.00,140.00,VWS V14.01,2013-05-18 14:45:00,
2013-05-18 10:50:00,65.0,48.5,30.24,NE,45,3.0,7.0,55,-99.99,,,0.00,150.00,VWS V14.01,2013-05-18 14:50:00,
2013-05-18 10:55:00,65.0,48.5,30.24,NE,45,3.0,7.0,55,-99.99,,,0.00,200.00,VWS V14.01,2013-05-18 14:55:00,
2013-05-18 11:00:00,65.0,48.0,30.24,ENE,68,6.0,8.0,54,-99.99,,,0.00,190.00,VWS V14.01,2013-05-18 15:00:00,
2013-05-18 11:05:00,65.0,48.0,30.24,ENE,68,4.0,8.0,54,-99.99,,,0.00,180.00,VWS V14.01,2013-05-18 15:05:00,
2013-05-18 11:10:00,65.0,48.5,30.24,NE,45,4.0,8.0,55,-99.99,,,0.00,170.00,VWS V14.01,2013-05-18 15:10:00,
2013-05-18 11:15:00,65.0,48.0,30.23,ENE,68,4.0,7.0,54,-99.99,,,0.00,180.00,VWS V14.01,2013-05-18 15:15:00,
2013-05-18 11:20:00,66.0,48.9,30.23,ENE,68,4.0,4.0,54,-99.99,,,0.00,190.00,VWS V14.01,2013-05-18 15:20:00,
2013-05-18 11:25:00,66.0,47.4,30.24,East,90,9.0,10.0,51,-99.99,,,0.00,160.00,VWS V14.01,2013-05-18 15:25:00,
2013-05-18 11:30:00,66.0,47.9,30.24,ENE,68,1.0,4.0,52,-99.99,,,0.00,150.00,VWS V14.01,2013-05-18 15:30:00,
2013-05-18 11:35:00,66.0,47.4,30.23,NE,45,7.0,9.0,51,-99.99,,,0.00,130.00,VWS V14.01,2013-05-18 15:35:00,
2013-05-18 11:40:00,66.0,47.9,30.24,ESE,112,4.0,6.0,52,-99.99,,,0.00,120.00,VWS V14.01,2013-05-18 15:40:00,
2013-05-18 11:45:00,66.0,47.9,30.23,East,90,4.0,6.0,52,-99.99,,,0.00,130.00,VWS V14.01,2013-05-18 15:45:00,
2013-05-18 11:50:00,66.0,47.4,30.23,ESE,112,5.0,6.0,51,-99.99,,,0.00,140.00,VWS V14.01,2013-05-18 15:50:00,
2013-05-18 11:55:00,66.0,47.9,30.23,East,90,3.0,5.0,52,-99.99,,,0.00,130.00,VWS V14.01,2013-05-18 15:55:00,
2013-05-18 12:00:00,66.0,47.9,30.23,NE,45,6.0,9.0,52,-99.99,,,0.00,130.00,VWS V14.01,2013-05-18 16:00:00,
2013-05-18 12:05:00,66.0,48.4,30.23,ENE,68,4.0,6.0,53,-99.99,,,0.00,120.00,VWS V14.01,2013-05-18 16:05:00,
2013-05-18 12:10:00,66.0,47.9,30.23,ENE,68,9.0,9.0,52,-99.99,,,0.00,100.00,VWS V14.01,2013-05-18 16:10:00,
2013-05-18 12:15:00,66.0,47.9,30.23,NE,45,4.0,8.0,52,-99.99,,,0.00,90.00,VWS V14.01,2013-05-18 16:15:00,
2013-05-18 12:20:00,66.0,48.4,30.22,ENE,68,4.0,5.0,53,-99.99,,,0.00,100.00,VWS V14.01,2013-05-18 16:20:00,
2013-05-18 12:25:00,66.0,48.9,30.22,East,90,1.0,6.0,54,-99.99,,,0.00,140.00,VWS V14.01,2013-05-18 16:25:00,
2013-05-18 12:30:00,66.0,48.4,30.22,NE,45,3.0,4.0,53,-99.99,,,0.00,120.00,VWS V14.01,2013-05-18 16:30:00,
2013-05-18 12:35:00,66.0,47.9,30.23,NE,45,5.0,7.0,52,-99.99,,,0.00,110.00,VWS V14.01,2013-05-18 16:35:00,
2013-05-18 12:40:00,66.0,48.9,30.22,ENE,68,3.0,7.0,54,-99.99,,,0.00,140.00,VWS V14.01,2013-05-18 16:40:00,
2013-05-18 12:45:00,66.0,48.9,30.22,ENE,68,5.0,7.0,54,-99.99,,,0.00,140.00,VWS V14.01,2013-05-18 16:45:00,
2013-05-18 12:50:00,66.0,48.9,30.22,NE,45,7.0,9.0,54,-99.99,,,0.00,150.00,VWS V14.01,2013-05-18 16:50:00,
2013-05-18 12:55:00,67.0,49.8,30.22,NE,45,6.0,8.0,54,-99.99,,,0.00,140.00,VWS V14.01,2013-05-18 16:55:00,
2013-05-18 13:00:00,67.0,50.3,30.22,NE,45,4.0,4.0,55,-99.99,,,0.00,150.00,VWS V14.01,2013-05-18 17:00:00,
2013-05-18 13:05:00,67.0,49.8,30.22,ENE,68,8.0,9.0,54,-99.99,,,0.00,170.00,VWS V14.01,2013-05-18 17:05:00,
2013-05-18 13:10:00,67.0,49.8,30.22,ENE,68,3.0,5.0,54,-99.99,,,0.00,180.00,VWS V14.01,2013-05-18 17:10:00,
2013-05-18 13:15:00,67.0,49.8,30.22,NE,45,5.0,7.0,54,-99.99,,,0.00,190.00,VWS V14.01,2013-05-18 17:15:00,
2013-05-18 13:20:00,67.0,49.8,30.22,ENE,68,4.0,4.0,54,-99.99,,,0.00,200.00,VWS V14.01,2013-05-18 17:20:00,
2013-05-18 13:25:00,67.0,50.8,30.22,ENE,68,4.0,5.0,56,-99.99,,,0.00,180.00,VWS V14.01,2013-05-18 17:25:00,
2013-05-18 13:30:00,67.0,50.8,30.22,NE,45,7.0,7.0,56,-99.99,,,0.00,160.00,VWS V14.01,2013-05-18 17:30:00,
2013-05-18 13:35:00,66.0,49.9,30.22,NE,45,6.0,7.0,56,-99.99,,,0.00,150.00,VWS V14.01,2013-05-18 17:35:00,
2013-05-18 13:40:00,66.0,50.3,30.22,NE,45,3.0,7.0,57,-99.99,,,0.00,130.00,VWS V14.01,2013-05-18 17:40:00,
2013-05-18 13:45:00,66.0,50.8,30.22,NE,45,4.0,6.0,58,-99.99,,,0.00,150.00,VWS V14.01,2013-05-18 17:45:00,
2013-05-18 13:50:00,66.0,50.3,30.22,NNE,22,5.0,8.0,57,-99.99,,,0.00,160.00,VWS V14.01,2013-05-18 17:50:00,
2013-05-18 13:55:00,66.0,50.3,30.22,NNE,22,3.0,3.0,57,-99.99,,,0.00,160.00,VWS V14.01,2013-05-18 17:55:00,
2013-05-18 14:00:00,67.0,51.3,30.22,NE,45,4.0,7.0,57,-99.99,,,0.00,150.00,VWS V14.01,2013-05-18 18:00:00,
2013-05-18 14:05:00,67.0,51.3,30.22,NNE,22,4.0,6.0,57,-99.99,,,0.00,120.00,VWS V14.01,2013-05-18 18:05:00,
2013-05-18 14:10:00,67.0,51.8,30.22,NE,45,5.0,5.0,58,-99.99,,,0.00,120.00,VWS V14.01,2013-05-18 18:10:00,
2013-05-18 14:15:00,67.0,51.8,30.21,ENE,68,3.0,3.0,58,-99.99,,,0.00,130.00,VWS V14.01,2013-05-18 18:15:00,
2013-05-18 14:20:00,67.0,51.8,30.21,ENE,68,3.0,5.0,58,-99.99,,,0.00,170.00,VWS V14.01,2013-05-18 18:20:00,
2013-05-18 14:25:00,67.0,52.2,30.21,East,90,3.0,4.0,59,-99.99,,,0.00,160.00,VWS V14.01,2013-05-18 18:25:00,
2013-05-18 14:30:00,68.0,51.7,30.21,East,90,1.0,6.0,56,-99.99,,,0.00,150.00,VWS V14.01,2013-05-18 18:30:00,
2013-05-18 14:35:00,68.0,50.8,30.21,ENE,68,4.0,8.0,54,-99.99,,,0.00,140.00,VWS V14.01,2013-05-18 18:35:00,
2013-05-18 14:40:00,68.0,50.2,30.21,ESE,112,10.0,10.0,53,-99.99,,,0.00,120.00,VWS V14.01,2013-05-18 18:40:00,
2013-05-18 14:45:00,68.0,50.2,30.21,ENE,68,2.0,2.0,53,-99.99,,,0.00,110.00,VWS V14.01,2013-05-18 18:45:00,
2013-05-18 14:50:00,68.0,49.7,30.22,ESE,112,6.0,7.0,52,-99.99,,,0.00,110.00,VWS V14.01,2013-05-18 18:50:00,
2013-05-18 14:55:00,68.0,51.7,30.21,SE,135,6.0,7.0,56,-99.99,,,0.00,110.00,VWS V14.01,2013-05-18 18:55:00,
2013-05-18 15:00:00,68.0,50.2,30.21,East,90,3.0,6.0,53,-99.99,,,0.00,120.00,VWS V14.01,2013-05-18 19:00:00,
2013-05-18 15:05:00,68.0,51.2,30.21,East,90,4.0,7.0,55,-99.99,,,0.00,120.00,VWS V14.01,2013-05-18 19:05:00,
2013-05-18 15:10:00,68.0,50.8,30.21,NE,45,7.0,12.0,54,-99.99,,,0.00,140.00,VWS V14.01,2013-05-18 19:10:00,
2013-05-18 15:15:00,67.0,49.8,30.21,ENE,68,5.0,11.0,54,-99.99,,,0.00,150.00,VWS V14.01,2013-05-18 19:15:00,
2013-05-18 15:20:00,67.0,49.8,30.21,East,90,8.0,13.0,54,-99.99,,,0.00,180.00,VWS V14.01,2013-05-18 19:20:00,
2013-05-18 15:25:00,67.0,51.3,30.21,ENE,68,7.0,8.0,57,-99.99,,,0.00,160.00,VWS V14.01,2013-05-18 19:25:00,
2013-05-18 15:30:00,67.0,51.3,30.21,ESE,112,6.0,8.0,57,-99.99,,,0.00,150.00,VWS V14.01,2013-05-18 19:30:00,
2013-05-18 15:35:00,67.0,51.3,30.21,ESE,112,7.0,8.0,57,-99.99,,,0.00,180.00,VWS V14.01,2013-05-18 19:35:00,
2013-05-18 15:40:00,67.0,51.3,30.21,East,90,7.0,8.0,57,-99.99,,,0.00,160.00,VWS V14.01,2013-05-18 19:40:00,
2013-05-18 15:45:00,67.0,50.8,30.21,ENE,68,8.0,8.0,56,-99.99,,,0.00,160.00,VWS V14.01,2013-05-18 19:45:00,
2013-05-18 15:50:00,67.0,51.3,30.21,ENE,68,5.0,5.0,57,-99.99,,,0.00,190.00,VWS V14.01,2013-05-18 19:50:00,
2013-05-18 15:55:00,67.0,53.1,30.21,NE,45,3.0,4.0,61,-99.99,,,0.00,200.00,VWS V14.01,2013-05-18 19:55:00,
2013-05-18 16:00:00,67.0,54.4,30.20,NE,45,2.0,7.0,64,-99.99,,,0.00,150.00,VWS V14.01,2013-05-18 20:00:00,
2013-05-18 16:05:00,67.0,54.4,30.21,East,90,3.0,4.0,64,-99.99,,,0.00,120.00,VWS V14.01,2013-05-18 20:05:00,
2013-05-18 16:10:00,67.0,54.0,30.21,East,90,5.0,6.0,63,-99.99,,,0.00,90.00,VWS V14.01,2013-05-18 20:10:00,
2013-05-18 16:15:00,67.0,53.6,30.21,East,90,4.0,5.0,62,-99.99,,,0.00,80.00,VWS V14.01,2013-05-18 20:15:00,
2013-05-18 16:20:00,66.0,53.1,30.21,ESE,112,3.0,4.0,63,-99.99,,,0.00,80.00,VWS V14.01,2013-05-18 20:20:00,
2013-05-18 16:25:00,66.0,53.5,30.21,ENE,68,2.0,3.0,64,-99.99,,,0.00,110.00,VWS V14.01,2013-05-18 20:25:00,
2013-05-18 16:30:00,66.0,53.5,30.21,NE,45,3.0,6.0,64,-99.99,,,0.00,100.00,VWS V14.01,2013-05-18 20:30:00,
2013-05-18 16:35:00,66.0,54.3,30.21,East,90,3.0,4.0,66,-99.99,,,0.00,120.00,VWS V14.01,2013-05-18 20:35:00,
2013-05-18 16:40:00,66.0,54.7,30.21,East,90,5.0,9.0,67,-99.99,,,0.00,120.00,VWS V14.01,2013-05-18 20:40:00,
2013-05-18 16:45:00,66.0,55.2,30.21,NE,45,6.0,6.0,68,-99.99,,,0.00,80.00,VWS V14.01,2013-05-18 20:45:00,
2013-05-18 16:50:00,66.0,54.7,30.21,ENE,68,7.0,7.0,67,-99.99,,,0.00,110.00,VWS V14.01,2013-05-18 20:50:00,
2013-05-18 16:55:00,65.0,55.4,30.21,NE,45,4.0,6.0,71,-99.99,,,0.00,100.00,VWS V14.01,2013-05-18 20:55:00,
2013-05-18 17:00:00,65.0,54.6,30.21,East,90,6.0,10.0,69,-99.99,,,0.00,130.00,VWS V14.01,2013-05-18 21:00:00,
2013-05-18 17:05:00,65.0,55.4,30.20,ENE,68,5.0,6.0,71,-99.99,,,0.00,160.00,VWS V14.01,2013-05-18 21:05:00,
2013-05-18 17:10:00,65.0,56.2,30.20,NE,45,4.0,4.0,73,-99.99,,,0.00,130.00,VWS V14.01,2013-05-18 21:10:00,
2013-05-18 17:15:00,65.0,56.9,30.20,NNE,22,3.0,9.0,75,-99.99,,,0.00,130.00,VWS V14.01,2013-05-18 21:15:00,
2013-05-18 17:20:00,65.0,57.3,30.20,North,0,5.0,7.0,76,-99.99,,,0.00,150.00,VWS V14.01,2013-05-18 21:20:00,
2013-05-18 17:25:00,64.0,55.6,30.20,North,0,7.0,10.0,74,-99.99,,,0.00,100.00,VWS V14.01,2013-05-18 21:25:00,
2013-05-18 17:30:00,64.0,55.9,30.20,NNE,22,4.0,5.0,75,-99.99,,,0.00,80.00,VWS V14.01,2013-05-18 21:30:00,
2013-05-18 17:35:00,64.0,55.6,30.20,NE,45,4.0,6.0,74,-99.99,,,0.00,90.00,VWS V14.01,2013-05-18 21:35:00,
2013-05-18 17:40:00,65.0,54.6,30.20,NE,45,6.0,10.0,69,-99.99,,,0.00,90.00,VWS V14.01,2013-05-18 21:40:00,
2013-05-18 17:45:00,65.0,54.2,30.21,ENE,68,6.0,6.0,68,-99.99,,,0.00,70.00,VWS V14.01,2013-05-18 21:45:00,
2013-05-18 17:50:00,65.0,53.4,30.21,ENE,68,7.0,10.0,66,-99.99,,,0.00,60.00,VWS V14.01,2013-05-18 21:50:00,
2013-05-18 17:55:00,65.0,52.5,30.21,NE,45,7.0,7.0,64,-99.99,,,0.00,40.00,VWS V14.01,2013-05-18 21:55:00,
2013-05-18 18:00:00,65.0,53.4,30.21,NE,45,4.0,7.0,66,-99.99,,,0.00,30.00,VWS V14.01,2013-05-18 22:00:00,
2013-05-18 18:05:00,65.0,53.4,30.21,ENE,68,6.0,8.0,66,-99.99,,,0.00,30.00,VWS V14.01,2013-05-18 22:05:00,
2013-05-18 18:10:00,65.0,53.4,30.21,ENE,68,7.0,7.0,66,-99.99,,,0.00,40.00,VWS V14.01,2013-05-18 22:10:00,
2013-05-18 18:15:00,65.0,53.0,30.21,NE,45,5.0,6.0,65,-99.99,,,0.00,40.00,VWS V14.01,2013-05-18 22:15:00,
2013-05-18 18:20:00,65.0,53.8,30.21,ENE,68,6.0,8.0,67,-99.99,,,0.00,40.00,VWS V14.01,2013-05-18 22:20:00,
2013-05-18 18:25:00,65.0,52.5,30.21,NE,45,3.0,11.0,64,-99.99,,,0.00,50.00,VWS V14.01,2013-05-18 22:25:00,
2013-05-18 18:30:00,65.0,51.7,30.21,East,90,6.0,11.0,62,-99.99,,,0.00,70.00,VWS V14.01,2013-05-18 22:30:00,
2013-05-18 18:35:00,65.0,51.7,30.21,East,90,4.0,10.0,62,-99.99,,,0.00,50.00,VWS V14.01,2013-05-18 22:35:00,
2013-05-18 18:40:00,65.0,51.2,30.21,ENE,68,6.0,9.0,61,-99.99,,,0.00,20.00,VWS V14.01,2013-05-18 22:40:00,
2013-05-18 18:45:00,65.0,51.7,30.21,ENE,68,5.0,7.0,62,-99.99,,,0.00,20.00,VWS V14.01,2013-05-18 22:45:00,
2013-05-18 18:50:00,65.0,51.7,30.21,ENE,68,6.0,8.0,62,-99.99,,,0.00,30.00,VWS V14.01,2013-05-18 22:50:00,
2013-05-18 18:55:00,65.0,51.7,30.21,East,90,4.0,7.0,62,-99.99,,,0.00,20.00,VWS V14.01,2013-05-18 22:55:00,
2013-05-18 19:00:00,65.0,51.7,30.21,ENE,68,4.0,13.0,62,-99.99,,,0.00,30.00,VWS V14.01,2013-05-18 23:00:00,
2013-05-18 19:05:00,65.0,51.7,30.22,ENE,68,5.0,5.0,62,-99.99,,,0.00,20.00,VWS V14.01,2013-05-18 23:05:00,
2013-05-18 19:10:00,65.0,51.7,30.22,East,90,3.0,8.0,62,-99.99,,,0.00,30.00,VWS V14.01,2013-05-18 23:10:00,
2013-05-18 19:15:00,65.0,51.7,30.21,East,90,7.0,11.0,62,-99.99,,,0.00,30.00,VWS V14.01,2013-05-18 23:15:00,
2013-05-18 19:20:00,65.0,51.7,30.22,ESE,112,7.0,12.0,62,-99.99,,,0.00,20.00,VWS V14.01,2013-05-18 23:20:00,
2013-05-18 19:25:00,65.0,51.2,30.22,ENE,68,10.0,10.0,61,-99.99,,,0.00,20.00,VWS V14.01,2013-05-18 23:25:00,
2013-05-18 19:30:00,65.0,50.8,30.22,ENE,68,2.0,3.0,60,-99.99,,,0.00,20.00,VWS V14.01,2013-05-18 23:30:00,
2013-05-18 19:35:00,65.0,50.8,30.22,ENE,68,10.0,13.0,60,-99.99,,,0.00,10.00,VWS V14.01,2013-05-18 23:35:00,
2013-05-18 19:40:00,64.0,50.3,30.22,ESE,112,12.0,13.0,61,-99.99,,,0.00,10.00,VWS V14.01,2013-05-18 23:40:00,
2013-05-18 19:45:00,64.0,50.3,30.23,ENE,68,4.0,6.0,61,-99.99,,,0.00,10.00,VWS V14.01,2013-05-18 23:45:00,
2013-05-18 19:50:00,64.0,50.3,30.23,East,90,8.0,10.0,61,-99.99,,,0.00,10.00,VWS V14.01,2013-05-18 23:50:00,
2013-05-18 19:55:00,64.0,50.3,30.23,East,90,7.0,7.0,61,-99.99,,,0.00,10.00,VWS V14.01,2013-05-18 23:55:00,
2013-05-18 20:00:00,64.0,50.3,30.23,ENE,68,8.0,9.0,61,-99.99,,,0.00,0.00,VWS V14.01,2013-05-19 00:00:00,
2013-05-18 20:05:00,64.0,50.3,30.23,NE,45,7.0,14.0,61,-99.99,,,0.00,0.00,VWS V14.01,2013-05-19 00:05:00,
2013-05-18 20:10:00,64.0,50.3,30.23,ENE,68,10.0,16.0,61,-99.99,,,0.00,0.00,VWS V14.01,2013-05-19 00:10:00,
2013-05-18 20:15:00,64.0,50.7,30.23,NE,45,3.0,8.0,62,-99.99,,,0.00,0.00,VWS V14.01,2013-05-19 00:15:00,
2013-05-18 20:20:00,64.0,50.7,30.23,ENE,68,4.0,7.0,62,-99.99,,,0.00,0.00,VWS V14.01,2013-05-19 00:20:00,
2013-05-18 20:25:00,64.0,50.3,30.23,NNE,22,6.0,6.0,61,-99.99,,,0.00,0.00,VWS V14.01,2013-05-19 00:25:00,
2013-05-18 20:30:00,63.0,49.8,30.23,ENE,68,4.0,6.0,62,-99.99,,,0.00,0.00,VWS V14.01,2013-05-19 00:30:00,
2013-05-18 20:35:00,63.0,50.2,30.23,East,90,5.0,9.0,63,-99.99,,,0.00,0.00,VWS V14.01,2013-05-19 00:35:00,
2013-05-18 20:40:00,63.0,50.2,30.23,NE,45,3.0,3.0,63,-99.99,,,0.00,0.00,VWS V14.01,2013-05-19 00:40:00,
2013-05-18 20:45:00,63.0,50.2,30.23,ESE,112,2.0,8.0,63,-99.99,,,0.00,0.00,VWS V14.01,2013-05-19 00:45:00,
2013-05-18 20:50:00,63.0,50.2,30.23,ENE,68,7.0,12.0,63,-99.99,,,0.00,0.00,VWS V14.01,2013-05-19 00:50:00,
2013-05-18 20:55:00,63.0,50.7,30.23,South,180,5.0,5.0,64,-99.99,,,0.00,0.00,VWS V14.01,2013-05-19 00:55:00,
2013-05-18 21:00:00,63.0,51.5,30.23,ESE,112,9.0,11.0,66,-99.99,,,0.00,0.00,VWS V14.01,2013-05-19 01:00:00,
2013-05-18 21:05:00,63.0,51.5,30.24,NE,45,4.0,10.0,66,-99.99,,,0.00,0.00,VWS V14.01,2013-05-19 01:05:00,
2013-05-18 21:10:00,63.0,51.5,30.23,East,90,5.0,6.0,66,-99.99,,,0.00,0.00,VWS V14.01,2013-05-19 01:10:00,
2013-05-18 21:15:00,62.0,50.9,30.24,NE,45,6.0,15.0,67,-99.99,,,0.00,0.00,VWS V14.01,2013-05-19 01:15:00,
2013-05-18 21:20:00,62.0,50.9,30.24,ESE,112,11.0,13.0,67,-99.99,,,0.00,0.00,VWS V14.01,2013-05-19 01:20:00,
2013-05-18 21:25:00,62.0,51.3,30.24,ESE,112,2.0,4.0,68,-99.99,,,0.00,0.00,VWS V14.01,2013-05-19 01:25:00,
2013-05-18 21:30:00,62.0,51.3,30.24,ENE,68,3.0,5.0,68,-99.99,,,0.00,0.00,VWS V14.01,2013-05-19 01:30:00,
2013-05-18 21:35:00,62.0,51.3,30.24,ENE,68,9.0,10.0,68,-99.99,,,0.00,0.00,VWS V14.01,2013-05-19 01:35:00,
2013-05-18 21:40:00,62.0,51.7,30.24,NE,45,2.0,7.0,69,-99.99,,,0.00,0.00,VWS V14.01,2013-05-19 01:40:00,
2013-05-18 21:45:00,62.0,51.7,30.24,NE,45,6.0,9.0,69,-99.99,,,0.00,0.00,VWS V14.01,2013-05-19 01:45:00,
2013-05-18 21:50:00,62.0,52.1,30.24,NE,45,6.0,8.0,70,-99.99,,,0.00,0.00,VWS V14.01,2013-05-19 01:50:00,
2013-05-18 21:55:00,62.0,52.1,30.24,ENE,68,6.0,7.0,70,-99.99,,,0.00,0.00,VWS V14.01,2013-05-19 01:55:00,
2013-05-18 22:00:00,62.0,52.5,30.24,ESE,112,5.0,8.0,71,-99.99,,,0.00,0.00,VWS V14.01,2013-05-19 02:00:00,
2013-05-18 22:05:00,62.0,52.5,30.24,NE,45,5.0,8.0,71,-99.99,,,0.00,0.00,VWS V14.01,2013-05-19 02:05:00,
2013-05-18 22:10:00,62.0,52.9,30.24,ESE,112,4.0,4.0,72,-99.99,,,0.00,0.00,VWS V14.01,2013-05-19 02:10:00,
2013-05-18 22:15:00,62.0,52.9,30.25,ENE,68,5.0,6.0,72,-99.99,,,0.00,0.00,VWS V14.01,2013-05-19 02:15:00,
2013-05-18 22:20:00,62.0,53.3,30.25,East,90,9.0,11.0,73,-99.99,,,0.00,0.00,VWS V14.01,2013-05-19 02:20:00,
2013-05-18 22:25:00,62.0,53.3,30.25,East,90,5.0,5.0,73,-99.99,,,0.00,0.00,VWS V14.01,2013-05-19 02:25:00,
2013-05-18 22:30:00,62.0,53.3,30.25,ENE,68,7.0,9.0,73,-99.99,,,0.00,0.00,VWS V14.01,2013-05-19 02:30:00,
2013-05-18 22:35:00,61.0,52.7,30.24,East,90,5.0,7.0,74,-99.99,,,0.00,0.00,VWS V14.01,2013-05-19 02:35:00,
2013-05-18 22:40:00,62.0,53.6,30.24,NE,45,3.0,5.0,74,-99.99,,,0.00,0.00,VWS V14.01,2013-05-19 02:40:00,
2013-05-18 22:45:00,62.0,54.0,30.24,East,90,4.0,4.0,75,-99.99,,,0.00,0.00,VWS V14.01,2013-05-19 02:45:00,
2013-05-18 22:50:00,61.0,53.0,30.25,East,90,5.0,8.0,75,-99.99,,,0.00,0.00,VWS V14.01,2013-05-19 02:50:00,
2013-05-18 22:55:00,61.0,53.4,30.25,ENE,68,3.0,8.0,76,-99.99,,,0.00,0.00,VWS V14.01,2013-05-19 02:55:00,
2013-05-18 22:56:00,61.0,54.5,30.24,NE,45,3.0,3.0,79,-99.99,,,0.00,0.00,VWS V14.01,2013-05-19 02:56:00,
2013-05-18 22:57:00,61.0,54.5,30.24,East,90,3.0,3.0,79,-99.99,,,0.00,0.00,VWS V14.01,2013-05-19 02:57:00,
2013-05-18 22:58:00,61.0,54.5,30.24,ENE,68,2.0,4.0,79,-99.99,,,0.00,0.00,VWS V14.01,2013-05-19 02:58:00,
2013-05-18 22:59:00,61.0,54.5,30.24,ENE,68,3.0,4.0,79,-99.99,,,0.00,0.00,VWS V14.01,2013-05-19 02:59:00,
2013-05-18 23:00:00,61.0,53.4,30.24,East,90,9.0,10.0,76,-99.99,,,0.00,0.00,VWS V14.01,2013-05-19 03:00:00,
2013-05-18 23:01:00,61.0,54.5,30.24,NE,45,2.0,3.0,79,-99.99,,,0.00,0.00,VWS V14.01,2013-05-19 03:01:00,
2013-05-18 23:02:00,61.0,54.5,30.24,NE,45,6.0,6.0,79,-99.99,,,0.00,0.00,VWS V14.01,2013-05-19 03:02:00,
2013-05-18 23:05:00,61.0,53.8,30.24,ESE,112,5.0,6.0,77,-99.99,,,0.00,0.00,VWS V14.01,2013-05-19 03:05:00,
2013-05-18 23:10:00,61.0,53.4,30.24,ENE,68,3.0,5.0,76,-99.99,,,0.00,0.00,VWS V14.01,2013-05-19 03:10:00,
2013-05-18 23:15:00,61.0,53.8,30.24,East,90,5.0,6.0,77,-99.99,,,0.00,0.00,VWS V14.01,2013-05-19 03:15:00,
2013-05-18 23:20:00,61.0,53.8,30.24,ENE,68,3.0,5.0,77,-99.99,,,0.00,0.00,VWS V14.01,2013-05-19 03:20:00,
2013-05-18 23:25:00,61.0,54.1,30.24,East,90,4.0,4.0,78,-99.99,,,0.00,0.00,VWS V14.01,2013-05-19 03:25:00,
2013-05-18 23:30:00,61.0,54.1,30.24,NE,45,3.0,4.0,78,-99.99,,,0.00,0.00,VWS V14.01,2013-05-19 03:30:00,
2013-05-18 23:35:00,61.0,54.1,30.24,ENE,68,3.0,7.0,78,-99.99,,,0.00,0.00,VWS V14.01,2013-05-19 03:35:00,
2013-05-18 23:40:00,61.0,54.5,30.24,East,90,5.0,7.0,79,-99.99,,,0.00,0.00,VWS V14.01,2013-05-19 03:40:00,
2013-05-18 23:45:00,61.0,54.1,30.24,East,90,5.0,5.0,78,-99.99,,,0.00,0.00,VWS V14.01,2013-05-19 03:45:00,
2013-05-18 23:50:00,61.0,54.1,30.24,ESE,112,4.0,5.0,78,-99.99,,,0.00,0.00,VWS V14.01,2013-05-19 03:50:00,
2013-05-18 23:55:00,61.0,54.5,30.24,ENE,68,3.0,5.0,79,-99.99,,,0.00,0.00,VWS V14.01,2013-05-19 03:55:00,